Flag for Switzerland Weather past 2 weeks in Winterthur, Switzerland

Now
41 °F

Passing clouds.


Feels Like: 38 °F
Forecast: 27 / 61 °F
Wind: 5 mph from North

Location: Zurich-Kloten


UV Index: 3 (Moderate)

Visibility: N/A


Pressure: 30.27 "Hg

Humidity: 61%

Dew point: 28 °F

Location of WinterthurLocation

Historic Weather in Winterthur

°F

Winterthur temperature yesterday

Maximum temperature yesterday: 54 °F (at 2:20 PM)
Minimum temperature yesterday: 32 °F (at 5:20 AM)
Average temperature yesterday: 45 °F

Past Weeks' High & Low Weather Summary

 TemperatureHumidityPressure
High72 °F (Apr 2, 3:20 PM)100% (Apr 2, 5:20 AM)30.33 "Hg (Apr 2, 5:20 AM)
Low32 °F (Apr 16, 5:20 AM)25% (Apr 2, 3:20 PM)29.65 "Hg (Apr 3, 3:20 PM)
Average53 °F67%30.04 "Hg
* Reported Apr 1 11:20 PM — Apr 16 11:20 PM, Winterthur, Weather by CustomWeather, © 2014

Note: Actual official high and low records may vary slightly from our data, if they occured in-between our weather recording intervals... More about our weather records

Advertising

Historic Weather Conditions — Data for Previous 24 hours

 ConditionsComfort  
Time TempWeatherWind HumidityBarometerVisibility
11:20 PM
Apr 16
45 °FPassing clouds.5 mph53%30.30 "HgN/A
10:50 PM45 °FClear.9 mph53%30.30 "Hg10 mi
10:20 PM45 °FClear.10 mph53%30.30 "Hg10 mi
9:50 PM46 °FClear.9 mph46%30.30 "Hg10 mi
9:20 PM46 °FClear.7 mph46%30.30 "Hg10 mi
8:50 PM48 °FPassing clouds.7 mph40%30.30 "HgN/A
8:20 PM48 °FPassing clouds.7 mph40%30.30 "HgN/A
7:50 PM50 °FPassing clouds.12 mph37%30.27 "HgN/A
7:20 PM50 °FPassing clouds.12 mph37%30.27 "HgN/A
6:50 PM52 °FPassing clouds.14 mph35%30.27 "HgN/A
6:20 PM52 °FPassing clouds.12 mph38%30.27 "HgN/A
5:50 PM54 °FPassing clouds.12 mph35%30.27 "HgN/A
5:20 PM54 °FPassing clouds.13 mph35%30.30 "HgN/A
4:50 PM54 °FPassing clouds.14 mph35%30.30 "HgN/A
4:20 PM54 °FPassing clouds.15 mph35%30.30 "HgN/A
3:50 PM54 °FPassing clouds.10 mph38%30.30 "HgN/A
3:20 PM54 °FPassing clouds.15 mph35%30.30 "HgN/A
2:50 PM52 °FPassing clouds.18 mph38%30.30 "HgN/A
2:20 PM54 °FPassing clouds.14 mph35%30.30 "HgN/A
1:50 PM52 °FPassing clouds.16 mph38%30.30 "HgN/A
1:20 PM52 °FPassing clouds.16 mph35%30.30 "HgN/A
12:50 PM50 °FPassing clouds.14 mph40%30.30 "HgN/A
12:20 PM50 °FPassing clouds.14 mph40%30.30 "HgN/A
11:50 AM48 °FPassing clouds.15 mph40%30.30 "HgN/A
11:20 AM48 °FPassing clouds.13 mph46%30.30 "HgN/A
10:50 AM46 °FPassing clouds.13 mph50%30.30 "HgN/A
10:20 AM45 °FPassing clouds.10 mph57%30.30 "HgN/A
9:50 AM45 °FPassing clouds.10 mph61%30.30 "HgN/A
9:20 AM43 °FPassing clouds.13 mph61%30.30 "HgN/A
8:50 AM41 °FPassing clouds.6 mph70%30.30 "HgN/A
8:20 AM39 °FPassing clouds.2 mph70%30.30 "HgN/A
7:50 AM36 °FPassing clouds.5 mph81%30.30 "HgN/A
7:20 AM34 °FPassing clouds.5 mph75%30.30 "HgN/A
6:50 AM32 °FClear.6 mph80%30.30 "Hg10 mi
6:20 AM32 °FClear.2 mph80%30.30 "Hg10 mi
5:50 AM34 °FClear.2 mph75%30.30 "Hg10 mi
5:20 AM32 °FClear.3 mph80%30.27 "Hg10 mi
4:50 AM34 °FPassing clouds.1 mph75%30.27 "HgN/A
4:20 AM36 °FPassing clouds.1 mph70%30.27 "HgN/A
3:50 AM39 °FPassing clouds.3 mph61%30.27 "HgN/A
3:20 AM39 °FPassing clouds.3 mph61%30.27 "HgN/A
2:50 AM41 °FPassing clouds.3 mph57%30.27 "HgN/A
12:50 AM43 °FPassing clouds.6 mph46%30.30 "HgN/A
12:20 AM43 °FPassing clouds.6 mph49%30.30 "HgN/A
Weather by CustomWeather, © 2014

See weather overview